Theta_e
323 323 323 323 323 323 323 323 323 324 324 323 323 323 323 323 323 324 324 324 324 324 325 325 324 324 324 325 324 319 315 305 304 302 301 301 313 322 321 322 324 325 321 308 306 305 303 303 303 305 306 305 302 307 304 303 301 306 301 299 296 298 297 295 296 294 291 291 289 289 290 290 287 287 288 292 289 288 287 286 287 289 287 289 289 291 292 293
323 322 322 322 321 323 323 323 323 323 324 323 323 322 323 323 323 323 324 324 324 323 325 325 324 323 323 325 322 320 310 303 301 300 299 310 317 319 323 324 324 324 313 303 302 303 302 301 303 305 304 302 301 301 302 300 301 302 300 299 297 298 291 287 288 289 292 292 291 290 290 292 290 289 289 290 288 289 288 287 288 288 288 288 289 290 289 289
322 321 321 322 321 320 322 322 322 323 323 322 322 322 323 323 322 322 323 324 323 323 325 325 324 324 323 324 322 318 309 302 301 299 301 314 319 319 320 321 322 322 306 303 302 303 302 302 303 304 302 301 299 300 300 296 298 294 298 296 296 290 288 288 287 288 289 292 289 288 288 289 287 289 289 290 289 289 290 288 289 290 287 287 287 288 287 288
321 321 321 321 321 321 321 322 322 323 323 323 323 322 322 323 323 323 323 323 325 325 324 324 324 323 324 323 323 315 304 302 297 299 304 316 318 317 318 319 321 314 308 306 305 304 301 302 302 304 302 301 298 299 299 295 297 294 296 295 291 288 289 287 287 288 290 293 290 288 288 287 286 287 289 290 289 289 290 291 291 291 289 287 287 286 286 286
320 321 320 320 320 321 321 321 322 322 322 323 323 322 322 322 322 323 323 324 324 325 325 322 323 322 323 322 315 305 302 295 295 300 305 317 316 317 316 321 315 309 307 304 304 301 302 301 301 301 303 299 297 297 293 293 293 292 288 286 287 288 288 286 287 286 288 290 289 288 288 288 287 287 288 291 292 292 291 290 286 292 289 287 286 286 287 287
320 320 320 320 320 320 321 321 322 322 322 322 322 322 322 322 323 323 323 323 323 324 323 323 323 321 322 314 311 310 300 288 299 300 314 313 314 314 315 318 312 308 304 301 301 300 300 298 300 299 299 300 294 296 292 292 291 294 286 287 287 287 287 286 287 285 288 289 289 289 287 287 287 285 284 284 284 283 283 285 286 286 286 286 287 287 286 286
319 318 319 319 319 320 320 320 321 322 322 322 322 322 322 322 322 322 323 323 321 321 323 322 323 322 317 313 311 305 299 298 300 303 310 310 312 308 311 312 308 305 302 300 299 300 298 298 298 298 297 295 291 292 290 292 293 295 288 286 285 287 286 285 285 285 287 288 285 286 287 287 286 286 284 283 281 282 282 284 285 285 285 285 284 286 286 286
319 319 319 319 319 319 320 320 321 321 322 322 322 321 322 322 322 322 323 322 322 322 322 322 322 320 316 310 305 299 297 296 301 303 307 309 303 301 308 302 302 302 301 299 299 299 298 297 297 296 297 296 293 293 290 292 292 291 286 285 284 285 284 285 286 286 286 284 286 287 286 284 284 285 283 283 281 282 282 284 284 284 284 283 284 285 285 285
319 319 319 319 319 319 320 320 321 321 321 321 321 322 321 321 321 322 322 323 323 321 322 321 321 316 316 308 301 298 294 301 301 302 302 300 300 299 301 302 300 302 300 299 298 300 299 297 296 298 294 292 292 292 291 292 291 288 286 286 285 284 285 286 285 285 286 286 287 287 283 283 283 284 284 283 281 282 283 283 283 283 283 283 283 285 285 285
319 319 318 318 319 320 320 321 321 320 321 321 321 322 322 322 321 322 323 323 323 324 323 319 320 313 309 303 303 295 297 302 302 303 301 299 300 301 302 299 300 302 302 299 301 299 298 298 298 297 296 291 291 288 289 291 290 287 286 287 286 285 286 287 286 285 286 286 285 286 283 284 284 283 286 282 283 282 282 282 283 283 283 283 283 284 284 284
319 318 318 319 319 320 321 321 321 320 321 321 322 321 321 321 321 322 322 322 323 323 322 321 319 312 304 302 298 293 301 303 304 303 301 300 300 300 298 298 298 301 301 300 299 297 297 297 299 299 302 293 292 288 289 287 289 288 287 287 287 287 287 287 287 286 288 286 285 287 284 284 284 283 287 283 283 283 282 282 282 283 284 283 283 284 285 284
318 318 318 319 320 320 321 321 320 320 321 321 321 321 321 321 321 322 322 323 323 321 318 317 312 305 304 301 297 296 302 303 304 302 302 301 299 297 297 297 299 300 302 300 299 298 297 298 299 300 294 296 289 289 286 290 290 289 291 287 286 287 287 287 286 287 287 286 286 286 286 284 283 285 284 284 282 282 282 282 282 283 283 284 284 284 284 285
317 317 318 319 319 320 321 320 320 322 321 321 320 321 321 321 321 322 322 321 323 323 321 315 308 308 306 298 297 302 301 305 303 301 302 303 299 299 298 299 300 301 302 301 297 297 299 300 300 294 295 294 290 290 290 290 289 290 290 289 286 287 286 287 287 287 287 286 286 287 283 288 287 285 281 283 282 282 282 282 283 283 283 284 284 284 284 285
317 317 318 319 318 320 320 320 320 321 321 321 320 320 320 320 321 322 322 322 320 319 316 313 307 307 304 296 300 301 302 305 304 302 300 303 302 301 301 301 301 301 301 298 297 299 299 300 298 294 297 293 289 293 289 289 290 288 287 292 288 285 285 287 287 286 286 286 286 287 283 288 287 283 282 282 283 282 282 283 283 283 283 283 284 284 284 285
316 317 318 319 319 319 320 321 320 319 320 321 320 321 321 321 321 321 322 319 317 317 316 314 305 306 300 297 301 302 313 305 302 299 300 300 299 301 301 302 299 299 300 300 299 298 298 300 299 294 290 292 292 292 289 289 289 288 287 285 287 286 286 285 287 286 285 286 287 287 283 287 288 285 281 282 282 282 282 283 284 283 283 283 284 283 284 285
317 317 318 318 318 318 319 319 319 318 319 319 319 320 320 320 319 319 319 318 314 319 310 311 307 303 299 294 299 307 303 299 299 300 299 300 299 298 299 298 298 299 300 298 299 300 300 298 293 292 290 292 292 291 289 288 287 288 287 285 284 285 287 285 285 286 286 286 286 286 285 287 287 284 282 282 282 282 282 284 284 283 283 283 284 284 284 285
317 318 318 317 317 318 319 318 317 318 319 319 319 317 317 317 315 314 312 309 306 307 306 302 304 302 294 299 302 299 295 299 299 300 299 300 299 297 298 300 298 298 298 299 300 300 298 296 292 293 294 291 291 292 288 286 284 286 288 286 286 284 286 285 284 285 286 285 285 286 283 286 287 283 282 282 282 281 282 283 284 284 284 284 284 284 284 284
317 317 318 317 318 318 318 316 315 316 317 316 315 314 310 315 315 313 310 310 308 307 305 306 303 301 294 300 293 295 298 297 299 298 298 300 297 298 298 297 295 296 298 297 297 296 295 293 294 290 291 291 290 290 285 283 285 285 285 285 285 284 285 286 285 285 285 285 284 285 284 285 288 286 282 282 282 282 282 283 284 284 284 284 284 284 284 284
317 317 317 317 317 318 317 316 315 314 315 316 317 316 314 315 314 309 304 304 307 301 298 297 298 291 289 293 297 297 298 297 296 298 298 299 299 296 297 297 295 297 295 294 291 294 295 294 295 290 287 288 288 288 287 286 287 287 287 287 287 285 286 285 285 284 285 285 284 285 284 286 288 288 285 283 282 281 282 284 284 284 284 284 284 284 284 284
317 316 317 317 318 318 316 317 317 315 316 311 313 312 311 303 304 301 304 301 296 294 296 298 294 295 295 296 295 299 299 297 296 298 299 299 298 296 296 295 295 296 295 292 292 290 291 291 287 287 288 286 284 284 284 284 284 285 286 286 286 286 286 284 284 284 285 284 285 286 286 286 287 288 288 285 283 281 282 282 283 284 284 284 284 284 285 285
317 316 316 317 317 317 316 317 316 314 314 317 316 309 299 301 296 291 293 296 294 294 296 296 295 294 294 295 296 295 294 296 297 297 297 300 295 295 294 294 294 293 287 285 289 291 292 289 285 284 284 283 283 283 283 284 284 286 287 286 285 284 285 284 284 284 285 284 286 283 284 285 287 288 289 287 283 281 282 282 283 283 284 284 284 284 285 285
316 316 316 317 317 317 317 317 316 311 308 315 314 303 303 308 303 304 302 292 297 299 295 295 294 295 295 295 296 294 294 294 296 296 299 300 295 295 293 292 291 289 287 287 289 290 288 285 284 283 283 284 283 283 284 285 286 285 286 286 285 286 286 284 284 284 284 284 285 285 283 285 288 289 290 286 284 285 285 284 285 284 284 284 284 285 285 285
315 315 316 316 317 317 317 315 315 315 316 309 308 305 305 307 305 305 306 298 295 297 297 297 295 294 295 297 296 294 292 289 289 294 294 297 294 290 291 290 288 286 288 288 288 286 285 284 283 283 283 283 283 283 283 285 287 286 286 285 284 284 282 282 283 283 283 284 284 284 282 284 287 289 290 289 286 286 286 285 285 286 285 285 285 285 285 285
315 315 315 316 317 316 317 315 313 317 310 309 309 306 303 302 300 302 305 295 293 294 296 295 294 293 293 293 295 295 292 290 291 290 296 296 292 291 291 288 287 286 284 286 288 286 283 282 283 283 283 283 284 283 284 285 285 284 284 283 283 282 284 282 283 283 284 284 282 283 283 284 286 286 287 288 287 285 285 284 284 284 285 286 286 286 286 285
314 314 315 317 315 317 315 313 312 309 306 310 307 306 302 303 303 304 302 293 294 293 296 295 293 295 295 297 296 294 291 291 292 292 295 294 292 293 289 287 288 284 284 284 286 285 282 282 282 283 283 283 284 285 283 283 284 283 282 282 281 282 283 282 282 283 283 282 283 281 277 280 284 284 285 287 284 283 285 284 284 285 285 285 284 285 286 286
314 314 316 316 316 314 315 308 307 304 310 309 307 303 298 301 303 304 302 291 286 291 298 290 297 292 297 293 294 291 293 290 291 293 295 293 293 291 289 288 289 285 284 285 285 284 283 282 282 283 284 283 284 282 281 282 283 281 281 281 281 282 282 282 282 282 279 278 281 283 277 275 284 284 285 286 285 286 287 284 285 286 286 285 285 285 286 286
313 315 315 315 314 315 305 304 307 307 303 303 305 301 301 303 302 306 295 287 284 289 289 295 294 293 298 292 290 293 287 288 292 292 292 293 292 294 291 287 289 287 287 286 285 282 285 283 281 282 283 283 283 282 281 281 281 280 280 282 282 281 281 281 281 281 281 283 283 281 282 277 277 283 284 283 282 284 286 286 286 286 287 287 287 287 287 287
314 314 314 314 312 310 309 306 304 307 306 302 300 300 300 302 305 308 294 278 277 295 289 294 294 300 296 293 294 290 288 289 289 290 291 293 292 293 293 288 288 287 285 285 281 283 283 282 282 281 281 282 282 281 281 281 280 280 280 281 281 281 281 281 282 282 281 278 278 280 281 277 277 282 279 283 283 284 285 286 287 288 288 288 288 288 288 288
313 314 312 311 311 307 311 309 309 306 302 299 296 302 302 305 307 298 287 278 286 290 299 291 298 294 292 295 292 289 290 290 288 291 293 292 293 291 289 286 286 285 285 284 283 282 284 283 283 282 282 281 281 281 281 280 280 280 281 281 281 282 282 282 282 282 280 278 275 279 281 275 277 283 284 282 281 282 285 288 289 290 290 289 289 289 290 290
313 313 314 310 312 314 309 308 307 302 299 299 299 299 303 306 299 289 281 274 290 283 292 294 293 289 291 290 289 290 288 288 287 289 291 289 291 292 287 289 287 287 285 287 286 283 283 284 282 284 282 283 282 281 280 280 280 283 280 282 281 281 282 281 282 281 279 273 277 277 276 277 273 281 282 282 283 286 287 288 289 289 289 290 291 291 291 290
311 311 312 315 314 305 306 304 303 300 298 303 301 304 304 301 290 283 273 283 289 289 291 291 288 291 288 288 287 290 288 287 288 288 290 292 291 292 290 286 291 285 284 283 282 282 283 284 285 284 284 283 283 280 280 279 281 282 282 281 280 279 279 279 278 279 273 273 276 275 275 278 272 278 283 285 284 282 284 285 286 288 289 289 289 290 291 290
309 309 310 309 305 300 305 305 301 299 299 298 305 307 300 287 288 282 280 291 284 286 285 287 287 285 286 286 285 285 285 287 286 286 284 285 285 286 284 283 283 280 280 281 280 281 281 282 281 282 284 282 281 281 280 281 281 282 281 280 276 275 275 272 275 272 273 273 275 275 275 274 275 279 283 285 286 286 285 286 287 288 288 289 289 289 289 289
308 307 307 305 305 308 302 302 299 301 298 302 306 303 293 285 276 281 280 285 283 285 286 287 286 286 283 284 285 284 285 285 287 285 283 283 284 282 282 283 282 281 280 280 280 280 280 280 280 282 282 283 282 279 280 279 280 281 280 278 275 272 270 267 272 271 271 275 273 274 275 272 278 281 285 284 286 288 289 289 289 288 287 288 288 289 286 286
306 307 304 300 303 302 302 299 298 298 303 308 303 297 289 281 278 283 282 284 284 286 286 285 286 285 285 284 284 283 284 284 284 285 284 283 283 282 282 282 282 283 282 281 279 278 276 277 280 281 280 281 281 281 281 281 281 280 278 279 277 275 271 267 271 269 272 273 274 274 272 273 274 281 283 285 286 286 285 284 285 285 286 286 286 286 287 286
304 304 304 301 303 300 300 298 299 298 306 306 298 293 282 279 278 283 283 284 283 285 286 282 284 285 283 283 282 284 283 283 283 284 284 283 282 281 281 283 282 282 281 280 277 277 277 278 279 280 281 281 281 282 279 280 280 279 280 279 277 276 279 273 273 272 270 271 272 272 273 280 279 285 284 285 285 284 285 285 284 285 286 285 285 285 285 286
309 309 305 303 303 301 301 300 298 300 308 302 293 287 284 284 283 283 284 287 285 285 285 283 284 284 282 283 281 282 284 283 284 284 283 282 281 281 280 281 282 283 282 280 279 279 277 279 280 282 282 282 282 281 281 280 276 278 278 277 278 279 278 273 270 269 270 271 270 278 276 279 283 284 285 285 283 284 285 285 285 285 286 284 284 285 286 285
306 307 304 303 303 301 299 298 299 306 306 301 291 285 285 283 283 283 287 285 284 286 284 283 282 282 282 282 282 281 283 283 282 282 283 282 281 281 280 281 282 281 282 281 279 280 278 279 279 281 280 281 282 281 280 280 280 280 276 278 278 279 280 277 271 270 271 269 272 273 273 275 276 274 282 282 282 284 285 285 285 284 284 282 284 285 286 286
307 304 299 302 300 299 300 297 302 306 304 297 286 287 281 285 283 286 285 285 286 284 284 283 282 282 281 281 282 282 282 282 283 282 282 282 281 283 282 281 281 282 283 283 281 279 280 277 279 279 280 281 281 281 281 280 280 279 278 281 278 275 273 275 273 267 268 267 269 273 273 273 275 276 282 282 281 283 284 286 284 284 285 285 285 286 287 287
300 305 300 300 301 298 300 300 306 304 300 290 283 287 284 285 284 285 286 287 286 286 284 283 283 281 281 280 281 280 280 282 281 282 280 281 280 283 282 283 281 281 281 281 281 280 279 276 278 277 280 281 281 282 278 279 280 279 280 279 278 277 276 274 274 273 272 268 268 270 271 272 280 280 282 281 282 283 284 284 283 284 285 285 285 286 286 286
305 300 295 299 300 299 299 305 305 300 295 288 285 284 285 285 286 285 284 285 287 284 284 284 282 283 280 282 281 283 280 280 282 282 280 281 281 282 282 281 282 280 281 280 279 282 280 278 275 278 279 279 278 281 280 282 277 276 277 277 276 275 276 276 272 273 272 270 269 268 268 274 281 284 282 283 283 284 284 284 283 284 285 285 285 285 285 286
295 303 301 304 301 298 303 304 293 289 287 283 285 284 284 286 286 285 284 284 287 285 284 284 284 283 283 282 282 283 282 281 281 282 281 282 281 281 283 283 283 281 281 280 279 281 279 278 275 278 277 278 280 280 279 279 281 281 280 277 278 274 273 270 271 271 270 271 269 268 269 276 282 283 284 283 285 284 285 284 283 284 285 285 285 286 286 286
298 293 294 302 299 304 307 294 285 284 286 286 286 285 286 290 287 285 286 284 284 286 285 284 282 283 282 283 282 282 283 282 282 281 282 282 283 282 281 282 284 284 282 281 279 280 279 279 277 275 278 280 278 276 278 277 277 278 279 279 280 279 278 274 268 271 267 270 268 270 267 272 283 284 284 284 284 284 284 282 281 283 283 284 285 286 287 287
300 296 298 300 297 304 297 286 286 285 285 286 286 286 284 286 286 284 286 285 285 285 285 284 285 283 284 284 282 283 282 282 282 282 282 282 282 282 280 282 283 282 283 280 278 280 280 278 275 277 280 278 276 278 278 277 278 278 278 277 277 276 278 277 276 275 273 271 269 269 266 273 282 285 284 284 283 280 279 279 280 281 283 284 285 286 286 286
295 297 296 299 299 308 302 286 285 284 285 285 285 285 284 286 285 284 285 285 286 284 285 284 284 284 282 283 284 283 283 281 282 282 282 280 283 279 280 282 283 283 282 280 279 283 277 280 277 275 276 279 276 275 276 276 278 278 279 278 278 275 270 268 270 270 271 273 273 271 267 274 279 280 282 281 279 280 282 284 283 282 284 285 285 285 285 286
292 292 295 297 297 300 293 293 290 284 284 284 285 284 285 285 286 286 286 286 285 285 284 284 284 285 284 283 283 282 283 281 280 281 280 279 283 280 280 281 281 282 281 281 281 283 279 278 277 273 272 270 272 274 277 278 277 279 278 275 274 275 271 273 272 273 269 273 274 271 272 278 283 284 283 282 281 283 284 285 286 286 285 284 284 285 285 285
297 287 292 295 294 292 288 286 290 288 283 282 282 284 283 285 284 284 284 286 285 284 284 284 283 285 283 282 283 282 282 282 280 279 279 281 281 281 278 277 279 281 280 283 281 281 278 276 276 278 277 276 279 281 277 277 276 274 276 275 275 274 275 276 276 273 271 273 271 275 275 277 279 281 282 283 284 283 284 285 285 285 285 285 285 285 285 285
294 291 287 287 291 291 287 289 288 288 287 287 286 282 281 284 284 284 285 285 284 285 284 284 285 283 282 282 282 282 282 281 281 278 278 279 281 280 276 279 279 280 282 280 279 280 275 275 277 276 277 279 281 280 278 276 275 277 276 276 276 274 272 273 273 272 278 273 270 276 277 275 276 280 281 282 283 284 284 285 285 285 285 285 285 285 285 285
292 289 290 289 291 288 289 287 287 286 284 286 284 283 283 283 283 283 283 284 283 284 284 284 282 285 284 284 283 281 280 281 279 279 278 276 279 280 280 279 281 282 283 280 279 279 278 275 275 271 274 277 278 277 278 277 276 276 276 276 276 275 273 271 273 276 277 273 272 278 278 276 279 281 282 283 283 283 284 284 285 285 284 284 284 284 284 284
292 288 290 286 290 283 284 284 286 289 287 285 285 283 282 283 283 285 284 283 284 284 285 283 283 285 284 284 283 282 280 279 281 278 275 278 277 279 279 278 281 282 282 280 279 275 277 276 272 269 272 275 276 276 278 277 277 276 275 276 277 276 274 274 275 276 276 275 277 277 278 277 279 281 282 283 284 284 284 284 284 284 283 284 284 283 283 284
291 293 288 288 288 285 284 285 285 288 288 284 284 283 284 283 284 283 283 285 283 283 285 282 284 282 284 282 283 281 283 284 283 282 280 278 277 277 280 283 280 280 281 279 279 278 276 276 274 272 273 276 276 273 273 273 273 272 275 276 276 276 276 275 275 275 276 275 276 276 276 275 280 283 282 284 284 284 283 283 283 284 284 283 283 283 283 283
293 293 296 292 291 285 285 285 287 287 286 286 285 283 283 283 284 286 285 287 287 284 283 285 286 283 282 283 283 283 287 284 283 285 283 282 282 283 282 282 284 278 279 276 277 275 275 275 271 271 273 276 273 274 275 276 275 275 275 277 277 275 273 274 273 275 273 272 274 274 272 273 279 282 283 283 283 282 282 282 283 283 284 283 283 283 283 283
292 290 292 296 287 284 286 282 282 285 285 288 287 285 285 287 284 284 285 286 284 286 287 287 284 286 282 281 282 284 287 285 286 286 284 286 285 283 283 282 284 282 278 278 274 276 275 275 273 274 273 275 274 273 274 276 277 276 279 281 282 280 278 277 278 277 276 277 273 271 273 280 282 283 282 282 283 283 283 283 284 284 284 284 283 283 283 283
Wind_Speed
8 6 4 4 4 4 4 4 3 4 6 6 5 6 5 4 5 5 5 5 3 1 2 2 2 2 2 2 3 2 1 2 7 9 10 4 5 8 11 10 9 6 5 3 3 6 6 6 6 5 6 5 2 4 2 2 3 3 6 4 5 1 6 2 2 1 3 8 11 11 5 8 8 5 6 7 9 8 6 5 4 6 7 5 8 9 9 9
9 7 5 5 6 6 6 6 6 5 3 4 4 5 5 5 4 4 4 3 2 2 2 1 2 1 1 2 3 2 3 1 9 10 6 1 4 7 10 10 8 4 6 3 1 2 5 6 6 8 7 4 1 1 2 2 4 3 2 4 5 1 3 3 4 3 2 6 12 8 5 7 7 10 6 6 6 8 7 4 5 7 6 7 8 7 7 7
8 8 6 6 7 7 7 7 8 8 6 4 4 5 5 5 4 4 3 3 3 2 3 3 3 2 1 2 1 2 2 2 1 9 3 3 9 12 11 10 6 3 4 2 1 3 4 3 7 8 2 3 2 3 1 3 4 2 3 6 1 4 4 5 3 2 3 7 12 10 5 4 5 3 4 5 9 6 8 8 7 9 10 9 7 7 6 6
9 8 7 7 6 6 6 7 8 7 7 7 5 4 5 5 6 4 4 4 4 3 4 3 2 1 2 1 2 1 2 4 3 6 3 7 13 14 11 9 3 3 2 3 2 2 2 4 5 6 5 4 3 0 4 3 3 2 3 2 3 2 1 5 4 3 2 8 10 9 7 6 4 2 4 8 9 7 4 4 4 12 13 11 8 7 6 6
8 8 8 8 9 9 8 7 6 6 6 6 6 5 5 5 5 4 4 4 4 3 3 2 1 2 2 2 3 2 1 4 2 4 5 10 14 13 10 3 2 1 2 5 6 5 3 6 8 1 4 4 2 3 4 3 5 5 4 3 2 1 0 4 4 3 4 5 10 10 11 7 5 4 5 11 8 5 4 7 1 8 10 10 10 8 6 7
8 7 7 8 8 8 8 8 6 5 4 5 6 5 5 5 4 3 4 3 3 4 2 1 1 2 3 4 4 2 1 2 2 6 7 14 13 11 5 0 3 2 6 3 2 4 6 4 7 6 4 5 1 4 4 3 3 1 2 2 3 3 1 3 2 3 2 8 9 9 5 8 5 4 0 2 2 3 3 4 4 5 6 5 5 7 7 7
7 7 8 7 7 8 8 8 7 5 4 4 5 5 5 5 4 4 3 3 4 3 2 2 1 2 5 4 2 2 0 3 4 9 13 13 11 7 3 3 5 3 2 3 3 4 3 5 7 5 4 4 4 5 3 3 1 2 3 3 6 4 6 3 4 1 3 4 5 5 7 4 8 5 2 2 1 2 2 2 4 4 4 4 6 6 8 8
8 8 7 7 6 7 7 8 8 6 5 4 4 5 5 6 5 5 4 4 3 2 2 2 1 3 5 2 2 2 5 6 12 9 14 12 7 6 1 3 2 4 3 1 3 4 4 6 9 3 1 3 3 4 1 2 6 4 4 4 5 6 5 5 5 6 7 8 6 6 5 3 3 1 5 4 3 3 3 3 3 4 4 4 5 6 6 6
7 7 8 7 7 6 6 6 5 5 4 4 3 5 5 6 6 6 6 5 4 4 4 5 3 3 5 1 1 1 5 8 4 10 11 11 7 5 2 2 3 3 4 2 2 1 6 4 2 6 3 6 1 6 3 1 3 4 7 7 6 7 6 6 8 7 6 4 3 5 5 3 3 1 4 4 5 4 3 4 4 4 5 6 6 6 6 7
8 8 8 8 7 6 5 4 4 3 1 2 3 4 5 7 7 6 6 6 5 4 3 3 4 5 3 2 1 1 3 4 3 9 11 7 7 2 8 5 3 3 2 2 2 1 3 2 3 8 16 10 4 6 4 4 3 10 12 10 10 7 6 2 6 5 4 4 2 1 4 3 2 2 4 6 7 6 6 5 4 6 8 7 6 6 6 7
9 9 9 8 7 6 6 6 5 3 2 2 3 4 6 6 6 6 5 5 4 3 1 1 3 6 5 1 4 5 2 3 5 7 10 6 9 10 9 8 5 1 7 6 5 3 2 3 8 6 1 5 8 9 6 4 12 13 16 14 10 8 7 5 3 3 2 2 2 1 4 2 3 2 3 9 9 8 8 7 7 8 8 7 7 7 7 7
9 9 9 9 8 7 7 7 5 3 4 4 6 6 7 6 6 5 5 4 4 3 4 3 3 2 7 12 8 4 3 3 3 6 6 9 7 4 4 5 6 0 2 5 5 4 2 6 2 3 3 5 6 9 7 8 9 11 4 7 6 5 5 3 2 2 2 3 0 1 3 5 7 8 5 10 10 9 8 8 8 9 8 7 7 7 7 8
8 8 8 8 8 8 7 7 5 4 5 7 8 8 8 7 5 5 5 6 3 4 4 3 0 2 0 7 4 0 1 1 2 3 8 7 2 1 3 5 9 11 6 7 4 3 1 0 7 14 5 5 7 1 10 4 5 3 3 8 7 4 4 3 1 1 2 3 1 3 5 6 13 8 7 9 10 9 8 9 9 8 8 8 8 7 8 8
7 7 7 7 7 7 7 6 5 4 6 8 9 9 7 6 5 4 4 5 5 5 7 5 1 1 5 4 3 0 2 1 4 10 13 9 1 2 2 8 8 7 7 14 9 5 8 7 18 15 6 5 7 8 11 4 3 3 2 3 2 5 3 4 1 1 4 3 1 3 7 2 6 6 8 8 9 11 10 10 10 9 9 9 8 8 9 10
6 6 7 6 6 6 6 5 4 5 6 7 8 8 8 7 6 6 6 6 5 3 4 3 3 0 5 3 3 1 1 4 10 9 7 10 9 1 6 6 9 9 9 9 6 3 2 4 11 7 6 5 14 9 7 4 3 2 4 3 2 4 3 3 3 2 4 4 3 2 6 9 2 7 10 9 9 10 10 10 11 11 10 10 9 10 10 10
6 7 7 7 5 5 4 3 5 6 6 7 8 8 7 7 8 8 7 5 2 1 1 1 6 3 8 4 3 1 2 8 11 6 2 6 7 5 4 2 2 6 3 6 2 4 8 14 12 7 12 6 5 6 7 5 3 1 3 0 2 2 1 2 4 2 3 1 3 7 6 4 2 5 9 9 9 10 10 11 11 12 12 11 10 9 9 10
7 6 7 6 5 5 4 4 6 6 6 6 9 9 9 9 9 9 7 6 4 1 0 3 1 1 2 1 3 4 5 4 2 5 5 3 5 5 3 3 2 3 3 5 6 4 8 10 2 1 4 3 1 2 4 2 2 5 1 2 1 4 3 4 5 2 1 4 5 6 7 12 0 5 8 9 10 10 11 13 12 12 11 11 10 10 11 11
7 6 6 6 4 3 2 5 7 8 8 6 8 8 12 9 8 4 3 4 2 4 5 4 1 1 3 3 4 7 5 5 7 8 2 5 3 7 6 5 1 1 0 2 8 8 5 4 3 4 4 4 2 3 4 3 2 4 5 5 4 4 7 4 2 4 2 3 7 6 9 16 11 6 9 11 11 11 14 12 12 12 12 12 11 11 13 12
7 6 5 5 4 3 0 6 8 10 9 8 6 2 2 3 6 10 9 5 1 0 1 7 6 1 3 7 6 6 4 3 3 6 10 10 5 0 3 2 2 3 2 0 4 4 4 6 3 5 5 4 1 3 3 3 3 1 5 5 3 4 5 6 2 3 1 5 7 12 11 12 12 9 9 10 12 14 14 12 11 12 12 12 13 13 13 13
7 6 5 5 4 3 1 4 3 2 4 2 0 1 1 1 3 4 6 12 9 3 3 2 1 1 0 4 8 10 3 4 3 8 8 4 5 3 3 4 1 8 4 1 3 4 4 3 1 0 2 3 3 3 2 3 3 2 1 3 5 6 2 3 3 3 1 3 11 11 11 14 16 12 9 12 12 13 13 15 14 13 12 13 13 14 14 15
7 6 5 4 3 2 1 3 3 2 4 2 2 2 2 4 1 2 2 5 2 1 3 3 2 3 4 3 6 9 3 1 1 10 10 7 3 3 4 4 0 1 5 2 1 2 4 2 3 3 4 4 4 2 1 2 1 1 1 3 3 3 4 3 1 1 1 3 2 2 6 13 16 14 10 10 11 16 17 17 16 16 15 13 15 16 16 15
7 6 5 4 3 1 2 3 5 6 4 3 2 2 2 1 1 2 5 5 2 3 1 3 2 2 1 2 1 1 4 2 6 17 10 13 6 3 5 4 4 4 3 1 2 2 4 3 3 3 2 2 1 2 1 1 1 1 2 0 2 1 2 2 2 2 1 1 8 3 9 13 14 13 9 12 14 14 15 17 17 15 15 14 14 15 15 12
7 6 5 4 2 1 3 3 5 2 0 2 2 3 2 1 2 2 2 9 5 2 3 3 4 4 4 3 2 4 4 10 4 11 14 13 3 8 3 3 6 2 2 4 2 3 3 3 4 3 1 2 4 2 1 3 1 0 1 2 2 4 2 2 4 1 2 2 6 8 12 15 17 16 17 13 13 12 11 14 15 13 15 16 16 13 12 14
7 6 5 3 2 3 3 3 3 1 4 2 5 2 2 1 0 1 3 3 4 1 2 1 1 1 4 6 5 8 6 2 2 12 12 7 6 3 2 5 6 5 6 7 6 4 4 4 2 2 3 2 3 2 2 3 1 2 2 2 2 1 1 4 2 1 2 1 3 9 13 15 11 10 7 6 10 10 11 10 13 14 15 13 11 12 14 16
6 6 4 3 4 4 3 4 2 1 2 2 3 1 1 0 0 2 2 2 1 3 2 1 1 2 3 2 2 2 3 4 5 3 5 7 4 2 4 1 2 4 2 5 5 9 5 3 1 2 2 1 2 1 5 3 4 2 3 2 2 2 2 2 3 5 4 3 3 5 9 8 3 5 6 4 4 11 11 12 15 16 15 14 16 18 15 15
6 4 4 1 5 5 5 3 2 2 2 3 1 2 0 0 1 1 0 2 0 3 1 2 3 3 3 3 7 3 2 3 2 3 3 5 2 1 4 3 4 4 3 2 5 4 3 1 3 2 3 2 2 2 2 2 2 2 2 1 0 0 1 1 2 2 3 4 2 2 4 12 10 7 8 5 6 10 7 13 16 13 13 14 16 15 15 16
6 3 2 2 5 7 6 4 3 3 3 2 2 1 1 0 0 1 2 0 1 2 3 1 2 3 1 2 2 2 2 3 1 1 3 4 2 1 1 2 2 4 2 2 3 3 2 2 3 2 4 3 3 2 2 2 1 1 2 1 1 2 2 2 3 3 5 3 2 3 5 8 14 4 3 2 5 9 10 13 15 14 15 16 16 15 15 15
6 4 4 4 4 2 2 6 5 5 1 1 1 0 0 0 1 2 1 2 0 2 3 2 2 2 3 4 5 4 3 7 2 2 3 4 3 2 2 2 2 4 2 2 2 3 1 2 1 3 3 3 1 3 2 2 2 2 0 2 4 3 3 2 3 3 2 5 6 4 4 6 7 2 3 3 7 9 12 13 14 15 16 17 17 16 17 17
5 4 6 7 9 9 5 3 3 4 1 2 1 1 1 2 1 2 0 1 1 1 3 1 2 1 6 3 5 2 1 6 3 5 7 3 8 3 4 2 4 6 2 2 1 3 0 2 1 2 3 2 3 2 1 1 2 1 1 2 1 2 1 2 2 3 1 3 7 3 4 5 15 8 4 3 4 10 9 10 11 11 13 15 15 17 18 15
7 4 3 1 3 2 2 2 5 1 1 0 1 0 1 1 2 1 0 3 1 0 1 4 2 7 5 1 2 8 7 4 1 7 5 3 7 7 6 1 2 2 5 4 7 3 2 1 1 2 2 3 4 3 1 2 2 6 4 4 4 3 2 1 1 1 2 4 3 5 1 3 8 7 3 2 3 3 3 5 4 4 6 10 13 15 13 13
10 8 4 2 2 1 1 3 1 1 1 1 1 0 1 4 0 2 1 0 1 1 1 4 2 1 6 6 2 5 2 3 7 7 3 3 3 5 3 3 3 1 3 3 4 2 3 2 2 2 2 3 3 4 1 1 1 3 1 1 2 3 2 2 1 2 2 4 5 1 1 6 5 10 3 6 0 2 4 6 10 8 7 5 7 9 11 12
13 15 13 8 1 1 1 4 1 1 1 1 2 2 1 2 0 2 0 2 2 2 2 2 2 1 2 1 2 6 4 2 3 6 5 4 4 4 6 1 4 1 0 1 1 2 3 3 2 2 1 1 3 3 3 2 3 4 2 2 3 3 2 2 2 3 3 5 4 2 1 5 15 18 15 13 10 8 9 8 10 11 13 8 4 6 7 7
9 8 15 8 2 5 4 1 0 1 1 2 2 1 1 1 1 0 1 2 0 2 2 1 1 3 1 2 3 3 2 3 4 2 1 0 1 4 1 2 1 2 2 2 2 1 2 4 2 3 3 3 4 4 3 3 4 4 3 0 2 4 1 3 3 1 4 2 2 2 2 9 14 15 16 18 17 14 10 10 10 11 14 14 10 4 5 5
10 4 8 3 8 4 2 2 1 2 1 1 1 4 2 0 1 1 1 2 1 1 2 1 1 2 3 1 2 4 1 2 3 2 2 0 1 1 2 2 1 2 1 2 2 3 2 2 5 6 3 4 4 3 3 3 4 1 3 2 2 1 3 4 2 5 5 7 0 4 3 5 2 1 3 6 6 6 5 4 5 7 9 10 8 9 9 8
5 8 6 2 2 4 3 1 1 3 1 1 5 1 1 2 1 2 2 2 1 1 2 0 0 1 1 2 2 1 2 0 2 2 2 2 1 1 1 1 0 1 1 2 1 1 2 5 3 1 3 1 2 2 1 3 3 2 0 1 1 3 1 6 2 2 2 5 6 5 6 3 7 7 7 7 8 8 7 9 7 10 9 5 8 8 7 6
1 3 1 4 4 4 3 1 1 2 1 3 2 1 2 1 0 3 1 2 3 3 3 1 0 1 0 1 1 1 2 3 2 2 1 1 0 2 1 1 2 1 1 1 2 2 0 3 4 2 1 1 2 1 1 2 2 3 3 3 1 3 2 2 3 3 2 2 9 3 9 11 7 15 16 7 4 10 8 10 9 10 7 4 6 6 6 6
3 3 4 4 4 5 3 1 1 1 4 3 2 1 0 1 2 2 1 1 1 2 3 2 0 1 1 0 1 1 0 1 1 2 0 1 2 4 2 2 1 2 1 2 1 2 1 3 4 3 4 3 2 1 2 2 3 3 4 2 5 0 4 1 4 1 3 6 7 1 8 15 3 12 6 3 2 2 5 6 5 6 5 4 5 5 7 6
2 3 2 3 4 5 2 1 1 5 4 2 0 0 1 0 1 0 2 3 1 0 2 2 1 1 2 1 1 1 2 2 2 1 2 1 1 4 3 2 2 1 1 1 2 1 1 5 3 1 3 3 2 2 4 2 3 4 2 3 3 2 2 3 1 4 2 5 5 4 6 11 9 14 7 9 7 9 8 7 4 7 4 4 5 6 6 8
3 1 2 3 3 4 2 3 3 2 2 1 1 1 3 1 1 1 3 1 2 2 3 1 0 1 0 2 0 1 1 1 1 1 2 2 2 5 3 2 3 2 1 2 1 2 2 2 0 2 2 2 2 3 5 5 3 3 3 3 2 3 5 3 1 2 1 7 2 7 4 13 6 9 3 9 6 6 8 5 6 7 6 5 4 4 7 8
1 1 2 1 5 2 3 1 4 4 2 2 2 1 1 2 2 2 1 2 2 2 0 2 2 1 3 2 1 0 1 1 2 0 2 1 3 3 4 0 3 4 1 2 1 2 1 1 3 3 2 2 4 8 6 5 5 4 4 3 3 1 2 1 1 3 3 4 3 6 10 11 12 7 6 9 8 9 6 6 6 7 6 4 7 7 7 7
1 1 1 4 7 2 2 11 10 4 2 1 2 2 1 1 4 1 2 1 1 2 1 2 4 2 2 2 3 3 1 2 2 2 2 2 5 1 5 5 5 6 2 2 2 3 2 3 3 1 3 6 4 4 3 3 2 4 6 5 7 6 3 2 7 5 1 4 5 2 12 15 13 9 2 9 9 5 5 7 7 7 5 7 7 7 7 7
1 0 1 6 8 1 2 4 3 1 1 1 1 2 2 3 3 2 2 1 3 1 1 1 1 0 2 2 1 4 2 2 3 1 4 3 2 2 2 1 5 6 4 2 1 1 2 1 3 6 7 6 2 3 2 2 0 2 3 3 4 2 2 4 7 3 1 4 4 1 3 21 3 7 5 6 7 4 3 3 5 6 7 7 8 8 8 9
3 2 1 5 7 4 9 4 1 1 1 1 2 2 1 1 2 1 3 2 3 1 1 2 3 4 3 2 2 2 5 2 6 4 2 3 3 2 2 4 6 5 1 1 1 3 2 2 2 9 8 1 4 4 3 2 0 3 4 2 4 6 6 6 4 1 4 3 4 3 5 17 4 7 5 3 2 1 1 4 5 8 8 7 10 13 12 11
2 1 1 0 4 1 3 2 2 0 1 1 1 2 2 0 3 3 3 2 3 3 3 2 1 3 1 1 3 2 6 1 3 2 2 2 2 4 0 5 6 5 5 1 2 6 2 3 2 5 6 2 3 2 2 1 1 5 3 5 6 4 6 2 6 0 3 12 13 4 15 16 0 3 4 2 1 4 6 7 7 9 10 9 11 12 11 11
4 0 1 4 7 4 3 1 6 4 1 4 3 4 3 1 1 2 1 3 2 1 2 2 1 3 2 1 2 1 3 3 3 2 2 2 1 2 2 3 1 1 1 1 1 2 3 2 3 3 5 6 6 7 5 1 3 3 2 3 5 8 8 3 4 5 6 5 15 10 15 20 8 4 2 4 6 6 9 12 12 11 11 10 9 11 12 11
1 1 3 3 6 5 5 2 2 5 5 3 1 2 1 2 2 1 3 1 2 2 1 2 1 1 3 2 3 4 5 2 3 1 0 1 2 1 2 1 2 0 0 1 1 2 2 1 5 8 7 10 9 2 5 2 1 5 5 8 7 7 5 2 2 2 14 4 8 18 18 21 24 20 11 17 16 16 16 15 14 12 9 8 10 11 11 11
2 0 1 1 1 5 3 1 2 2 4 5 1 6 4 4 1 0 2 3 3 3 2 2 3 5 3 2 4 3 2 2 1 1 6 5 0 0 2 1 1 3 4 3 0 2 1 3 10 12 13 19 12 10 4 2 11 16 13 9 9 9 10 11 10 17 4 1 17 18 18 16 25 23 15 17 16 14 13 13 15 14 12 12 13 13 14 13
1 1 2 1 0 1 1 1 2 3 4 1 0 1 5 5 3 3 1 1 1 3 3 3 4 7 6 7 5 2 4 3 3 4 1 1 2 2 2 3 4 3 4 3 1 3 2 4 2 3 14 11 11 14 12 12 13 16 13 13 10 11 11 14 22 25 8 11 19 20 5 10 20 17 17 17 17 17 15 18 18 16 15 14 13 14 14 12
2 2 1 2 1 0 1 2 2 5 6 2 2 3 4 7 6 4 2 3 2 3 8 4 6 12 10 4 4 2 4 1 4 3 4 3 5 3 2 1 3 2 6 3 4 2 1 7 1 1 11 14 11 13 13 14 15 12 15 16 15 13 17 19 23 20 19 20 25 23 26 25 25 23 23 21 17 15 17 16 15 16 15 13 13 13 13 12
2 4 1 3 5 4 0 2 2 4 3 1 0 6 6 7 7 3 2 5 3 3 4 6 6 3 9 9 8 4 9 9 1 3 3 5 1 4 3 3 4 3 5 6 5 3 3 3 6 2 4 14 2 1 1 5 6 14 18 16 18 18 19 20 19 20 16 23 27 31 27 24 24 20 20 19 15 14 13 15 16 15 13 13 13 13 12 12
1 1 4 6 2 1 1 1 3 1 1 1 2 3 2 6 8 7 4 6 5 7 9 9 3 5 1 7 10 14 10 7 5 4 7 7 6 5 4 1 8 6 7 3 3 2 2 3 4 1 3 8 4 2 1 6 10 13 21 22 16 16 12 14 13 17 13 18 14 5 10 16 20 13 7 10 12 12 13 14 15 13 11 10 12 13 12 12
2 1 1 3 3 2 1 1 0 2 3 4 6 6 6 6 3 6 4 3 2 1 7 7 5 4 2 6 14 17 7 4 7 4 3 3 2 0 3 2 9 8 8 7 2 5 6 3 2 1 2 10 3 2 6 10 13 14 14 13 14 11 15 9 11 9 15 13 5 9 13 15 9 7 12 12 11 12 13 12 13 14 10 8 11 13 13 13
Wind_Direction
335 339 353 357 351 348 327 305 268 219 209 214 235 260 264 231 233 248 266 263 258 291 294 305 304 320 334 35 6 41 130 164 86 62 60 51 346 321 309 305 302 307 177 225 165 173 150 152 149 165 162 191 64 188 115 93 348 219 215 234 226 251 208 58 216 138 38 150 151 163 179 144 135 156 127 123 84 87 104 82 93 90 65 89 95 106 125 147
331 331 337 351 352 345 333 318 299 275 249 236 224 227 251 268 250 260 253 268 276 248 235 188 242 287 307 53 44 48 104 328 84 70 72 70 332 318 302 298 300 282 181 217 164 227 168 169 152 172 163 165 271 113 250 105 321 244 193 230 249 174 57 355 3 331 204 148 151 151 164 171 128 149 161 174 142 146 127 100 132 107 106 105 112 111 131 143
323 320 334 348 348 336 323 309 301 296 292 261 232 234 239 250 269 270 271 274 278 277 240 193 200 215 89 82 115 7 296 272 286 21 7 359 341 331 319 307 302 191 224 304 236 216 231 177 161 167 175 159 7 135 249 48 324 37 259 225 186 39 90 30 345 339 335 136 144 144 142 127 117 148 133 203 154 176 183 153 157 155 147 144 130 135 136 156
319 321 336 342 335 321 307 301 296 294 288 291 282 249 230 233 235 229 237 239 242 220 224 236 200 75 51 57 175 212 267 278 40 323 1 351 336 329 322 318 278 183 166 76 114 126 109 119 162 210 157 213 112 4 181 32 269 84 237 278 55 49 304 34 8 20 126 166 139 135 133 127 154 124 204 150 145 200 185 162 173 169 156 148 148 145 151 157
314 321 336 339 334 327 319 306 294 281 275 267 262 263 265 251 242 230 221 218 211 213 213 211 113 79 59 143 136 165 314 265 86 286 13 344 333 332 330 342 116 237 283 136 118 104 138 150 165 109 211 164 116 112 45 46 28 78 49 28 345 20 245 37 41 26 111 124 128 137 157 150 119 166 189 184 213 174 182 163 133 135 144 147 152 154 158 162
315 326 339 337 331 321 312 303 292 275 260 248 243 236 238 250 252 238 229 211 186 195 177 188 67 83 118 137 145 135 300 269 339 344 353 342 332 337 331 61 98 133 138 131 144 121 149 139 177 186 182 193 114 205 73 24 320 154 106 45 22 335 87 60 63 36 116 139 140 158 105 114 171 142 88 294 315 46 19 86 128 114 118 124 141 154 165 168
323 333 336 332 323 316 313 311 304 295 264 235 229 223 216 215 224 224 214 198 204 201 180 156 134 146 142 116 108 173 287 107 325 356 348 336 331 337 343 53 130 137 181 129 136 159 167 163 207 173 144 83 57 82 54 63 294 8 121 91 51 42 78 44 75 64 59 112 89 77 133 146 154 168 148 242 84 56 64 77 115 104 110 131 155 172 173 171
330 332 330 325 321 324 321 317 313 308 288 248 214 204 196 196 194 190 188 198 191 202 189 175 177 147 161 157 195 80 55 355 337 349 337 329 334 351 100 90 86 161 107 1 179 183 168 183 194 129 128 206 118 125 36 121 44 101 110 109 90 66 72 86 88 90 87 77 99 130 124 92 350 41 147 207 146 144 132 136 133 137 142 162 177 177 174 172
333 336 330 324 325 326 323 316 311 302 280 267 209 188 177 172 170 168 172 169 172 187 193 200 167 132 222 134 193 223 38 333 10 328 342 339 340 343 175 306 353 200 116 104 355 208 195 172 148 203 189 126 99 112 18 248 144 62 102 115 109 93 100 100 96 82 87 103 115 112 79 74 83 62 234 166 172 162 151 157 158 164 173 182 192 187 187 188
337 341 332 324 324 327 320 317 330 329 299 212 194 174 157 148 154 160 160 154 165 182 194 189 208 165 166 160 183 154 45 310 351 349 345 339 324 250 39 30 343 133 151 21 73 89 222 167 194 119 105 71 61 36 300 347 72 116 112 108 102 108 109 90 104 94 73 88 322 150 133 142 165 277 213 159 170 168 171 175 173 189 191 192 194 198 203 199
346 344 332 324 330 334 341 347 349 6 75 146 156 148 140 143 144 144 141 145 153 158 182 187 198 214 79 345 83 72 358 343 13 354 351 339 20 33 4 350 328 134 106 71 59 350 353 134 123 135 70 127 93 42 63 79 120 108 113 98 92 101 94 112 109 101 212 98 19 211 132 111 187 193 280 155 164 176 182 182 186 202 199 196 202 204 203 209
350 343 330 326 338 342 352 346 352 32 83 116 132 132 133 133 132 135 130 135 134 115 98 72 41 58 86 69 57 35 31 359 328 359 355 14 40 24 354 337 2 250 253 101 55 34 301 125 101 33 135 173 84 125 69 128 115 129 140 101 106 131 110 62 92 53 282 105 220 3 180 219 187 229 125 144 151 178 187 191 196 203 206 206 205 211 210 212
348 341 327 335 343 348 346 339 349 35 95 113 122 121 123 124 125 124 128 112 95 91 81 78 345 55 39 65 37 3 51 288 323 307 15 18 110 50 51 17 32 44 37 98 59 14 45 198 108 85 39 101 126 16 148 185 121 173 93 118 131 144 140 74 137 79 187 99 21 274 258 214 206 170 139 148 161 171 190 202 201 205 208 212 212 216 218 214
346 333 330 340 345 344 336 335 2 61 103 108 112 116 113 115 123 125 107 86 85 83 76 45 40 80 88 93 132 206 282 250 286 19 9 344 111 99 114 44 53 58 51 83 75 65 94 90 89 100 73 85 118 139 116 130 228 158 162 256 176 179 178 94 96 59 190 132 295 291 252 268 142 138 151 165 169 180 195 202 205 207 209 212 216 218 221 220
343 336 336 341 347 344 325 324 44 87 91 98 104 110 115 115 114 109 112 97 70 86 51 337 27 203 69 86 262 143 211 215 22 16 12 4 358 190 42 12 46 45 58 63 85 51 62 96 85 59 70 73 123 150 104 114 98 106 183 188 155 245 105 132 111 191 224 142 248 276 258 258 114 153 160 168 182 192 210 206 208 211 211 213 215 220 224 226
345 341 343 340 350 345 329 21 74 96 98 103 105 103 103 107 103 96 77 75 19 344 202 150 5 68 112 92 47 237 44 18 360 353 31 3 6 4 321 335 306 56 61 62 58 64 53 70 57 101 110 150 167 137 129 134 140 211 262 87 199 218 139 191 156 96 357 101 187 231 279 343 195 118 160 171 186 200 218 218 214 214 217 217 220 222 225 227
346 345 342 342 350 342 341 63 87 105 109 109 103 94 95 98 91 91 85 58 9 196 144 50 206 275 39 63 251 4 3 345 304 335 353 50 7 344 285 179 44 86 63 100 39 78 14 68 240 140 12 97 23 174 162 205 180 197 158 262 144 227 162 236 104 208 67 222 220 195 245 254 52 166 166 182 195 202 223 225 220 219 219 219 222 224 225 227
344 347 343 338 350 328 348 88 103 109 113 120 103 122 96 109 119 79 16 31 351 63 70 141 114 32 128 16 20 339 339 286 348 321 272 17 17 8 21 43 118 225 320 186 40 33 347 101 239 111 136 118 186 196 226 255 229 213 186 218 212 222 236 285 225 103 252 188 250 223 243 262 258 162 185 194 199 212 226 225 225 222 221 221 223 226 228 229
343 346 339 335 337 321 226 114 116 116 111 101 96 69 63 313 60 64 32 334 80 226 175 2 351 85 34 337 306 288 303 326 277 347 352 7 341 109 62 118 358 211 168 317 29 4 13 101 139 139 156 167 82 340 329 19 345 303 235 248 282 241 212 228 109 84 321 231 233 235 241 256 260 217 190 192 200 213 229 232 236 231 227 226 227 228 229 229
347 340 340 332 330 316 193 145 119 125 169 165 128 162 169 147 43 49 2 40 58 34 22 44 115 125 227 14 338 318 275 303 341 20 9 27 313 318 33 354 76 68 31 255 15 59 291 135 153 111 48 12 356 325 322 4 358 358 278 252 255 265 259 93 112 64 275 273 248 248 252 262 266 260 216 194 191 218 230 231 230 227 225 224 226 227 228 231
346 340 331 326 314 301 179 122 110 72 143 121 110 131 236 145 95 94 350 70 201 311 19 64 21 24 48 314 338 342 358 264 202 16 21 314 185 284 10 317 306 89 40 312 333 326 251 110 51 9 347 329 331 293 185 116 162 281 228 227 232 208 278 73 119 95 173 276 281 105 276 265 263 263 245 177 186 219 218 225 229 227 223 225 226 229 229 234
338 341 323 318 310 273 156 115 101 99 130 105 64 198 83 204 341 40 145 89 38 28 353 39 240 66 213 230 6 321 226 332 30 6 4 359 5 271 12 42 48 84 12 312 206 171 56 66 37 13 54 68 67 93 159 291 136 170 284 178 263 221 298 135 120 132 132 244 274 13 296 278 272 264 234 182 202 224 216 216 224 221 224 225 226 229 232 231
336 328 334 312 294 171 138 111 87 169 195 290 81 120 94 49 300 258 116 118 94 304 43 19 46 23 29 184 57 215 40 43 327 3 1 335 11 50 334 55 54 82 56 5 221 139 130 90 29 27 177 141 92 103 155 152 158 299 180 228 303 42 313 275 137 239 187 248 318 325 301 279 267 251 242 207 203 227 220 219 226 218 223 223 223 222 226 229
335 337 318 322 257 147 132 116 166 72 38 68 98 59 97 37 20 216 71 66 121 94 2 82 33 52 33 11 353 355 55 47 300 343 358 1 39 273 45 49 80 51 40 16 52 60 63 47 27 87 167 285 100 116 243 256 186 78 332 314 296 335 218 273 5 302 213 216 273 287 277 271 246 250 233 204 210 229 227 219 230 231 234 237 242 237 227 228
340 338 321 297 142 154 166 167 86 59 171 80 51 137 313 280 272 317 115 113 119 107 193 142 217 51 7 210 355 220 86 135 39 280 335 358 7 250 75 176 303 61 55 324 101 99 84 60 8 172 146 222 296 154 36 335 269 155 94 4 2 316 256 229 293 299 250 208 84 343 323 294 126 195 247 191 184 227 228 223 231 227 225 224 231 233 230 231
350 337 325 249 159 177 191 159 180 165 166 118 146 107 318 61 313 293 111 78 139 345 190 21 186 72 199 17 2 31 236 66 327 5 316 16 259 16 176 78 336 134 196 57 58 54 65 93 210 196 172 154 133 67 26 294 287 270 115 342 284 27 313 286 275 276 274 297 90 303 330 293 291 260 230 214 221 242 219 223 239 229 226 221 226 228 223 224
355 345 352 141 154 161 137 200 70 144 141 190 97 335 311 273 255 172 245 287 196 28 4 43 247 76 193 18 343 242 226 58 0 329 14 19 336 38 313 63 132 52 52 131 210 102 180 111 128 134 170 173 182 159 79 308 271 246 72 143 134 255 247 269 269 247 288 327 242 194 231 277 296 298 94 24 271 263 251 240 240 235 230 227 228 226 223 220
2 17 66 80 83 245 317 110 145 178 190 38 355 19 287 177 249 287 275 36 303 8 355 355 15 321 30 325 355 48 83 296 258 95 64 322 242 130 47 78 47 104 141 242 303 73 333 102 72 154 180 202 143 59 97 225 270 19 197 223 251 256 259 218 241 270 339 336 289 149 159 265 251 241 146 180 271 256 251 243 238 232 229 231 233 231 227 223
14 58 83 84 89 86 69 97 120 125 78 319 0 276 82 198 196 104 44 238 113 59 143 179 128 70 354 254 43 27 318 9 9 353 334 235 44 273 80 61 108 106 75 254 298 151 124 7 39 324 244 159 102 96 89 210 249 112 114 132 115 140 136 218 235 265 209 290 280 167 165 269 282 283 201 124 246 272 258 253 243 236 228 227 229 232 228 225
40 46 77 157 113 126 39 70 51 0 342 15 11 152 183 213 236 228 15 259 49 110 50 303 332 326 328 291 68 12 35 10 158 301 19 46 348 52 64 0 174 126 79 66 65 54 63 76 326 284 27 55 125 65 3 299 31 112 177 142 128 141 146 146 15 296 275 241 258 90 155 274 294 301 191 214 245 247 286 275 253 252 252 244 239 238 231 222
47 49 42 65 86 124 17 62 80 63 36 179 228 155 172 40 70 114 173 283 62 349 209 42 11 304 18 32 24 20 132 355 359 355 24 358 35 53 94 201 188 140 120 102 85 81 160 148 198 84 26 90 104 116 70 332 154 220 240 245 228 178 173 206 185 222 254 267 97 10 203 235 240 280 188 231 272 218 233 274 282 279 263 247 251 247 241 231
55 57 55 65 117 22 58 136 86 65 71 232 214 121 136 231 101 250 234 28 257 28 11 356 95 27 47 228 69 352 0 341 38 21 24 26 25 20 11 12 2 234 169 21 103 164 176 168 60 101 4 248 166 203 131 154 186 231 229 229 302 307 311 245 180 251 203 287 104 84 198 258 233 244 273 285 264 242 209 238 265 282 290 279 254 259 256 248
59 71 67 52 120 56 55 47 27 163 217 226 97 29 138 118 216 114 271 316 62 345 137 230 358 358 328 255 49 352 272 22 336 88 255 97 225 77 17 8 4 308 344 78 300 286 138 106 188 132 190 203 228 233 158 197 170 200 226 198 284 295 332 265 277 351 290 222 99 112 61 252 270 283 257 257 262 262 264 245 250 263 271 279 283 268 254 247
58 33 73 43 69 80 99 87 115 198 176 101 205 92 60 274 246 95 290 262 36 30 39 340 341 201 4 19 41 334 177 158 342 18 280 80 256 146 160 149 255 166 326 137 316 37 286 199 176 186 180 129 222 256 341 352 155 157 24 278 277 249 277 294 250 275 303 310 87 170 326 248 286 239 112 250 281 307 291 271 266 269 269 275 284 282 269 250
86 69 103 136 121 88 63 98 193 210 195 144 66 63 155 249 211 196 215 181 176 160 163 167 220 244 108 147 355 229 309 140 69 294 35 302 107 252 145 116 31 287 63 230 112 283 258 275 83 6 35 162 204 134 301 105 123 109 58 11 214 222 129 257 11 295 329 320 293 176 222 229 243 335 293 244 254 264 255 261 244 261 254 242 270 262 252 249
289 21 19 46 16 18 50 356 209 198 185 93 127 89 233 182 143 186 100 48 99 185 126 175 214 225 34 219 112 134 101 303 46 306 149 335 27 213 79 215 199 221 230 335 138 205 170 235 91 113 194 184 55 193 183 305 263 143 199 211 70 32 209 97 138 74 150 210 253 232 276 262 266 276 258 277 254 262 272 269 261 261 268 252 257 261 263 262
44 317 53 344 25 5 356 0 232 162 65 87 121 248 193 234 263 180 348 171 105 114 148 235 70 316 206 291 247 193 148 250 275 329 261 177 201 197 194 201 138 191 273 327 220 264 303 302 123 173 189 100 340 339 14 349 313 117 231 126 108 17 335 206 276 147 232 261 280 89 272 291 22 300 102 148 213 237 254 267 259 267 263 268 260 266 272 277
62 54 158 47 340 333 313 286 260 56 71 86 99 162 192 143 174 348 122 147 167 300 158 219 94 324 220 232 218 196 52 288 78 225 299 220 357 123 155 165 137 320 304 319 284 121 166 281 152 312 38 99 136 221 216 118 345 273 350 92 250 215 209 118 313 265 251 250 275 242 281 265 239 262 255 250 229 252 255 265 279 277 268 255 269 272 277 278
71 115 53 11 14 338 323 300 70 66 96 71 166 204 192 320 73 164 201 329 349 169 213 192 287 174 148 193 287 217 320 286 35 218 283 156 248 174 182 162 156 164 351 218 237 116 249 274 320 146 176 75 210 195 253 154 118 97 159 158 41 267 266 233 244 340 62 278 336 275 118 279 203 211 180 277 265 256 263 255 258 252 257 263 265 272 281 294
97 74 29 33 351 5 297 165 66 51 86 227 172 235 57 183 141 124 65 266 171 212 179 155 237 152 212 243 101 323 144 274 243 4 247 81 268 163 204 80 165 151 116 278 326 268 175 125 287 105 264 282 224 191 232 182 171 155 200 198 126 49 9 333 299 214 252 284 259 302 293 263 261 170 196 247 265 263 244 246 244 255 255 252 257 261 273 271
321 95 251 334 345 311 272 42 45 35 99 51 17 109 165 214 160 122 98 0 357 5 257 225 166 201 174 152 230 192 204 218 208 220 216 220 210 271 178 166 161 141 161 139 217 213 180 199 253 160 222 215 230 42 7 352 326 212 196 203 183 149 178 206 256 95 288 214 244 195 264 278 270 116 170 252 253 248 241 235 255 261 262 263 269 262 255 267
208 340 335 359 340 318 129 58 36 306 69 152 138 175 148 130 136 117 126 107 315 124 40 121 20 193 143 204 43 171 207 225 197 262 217 234 150 275 62 71 148 151 163 190 214 115 303 4 275 256 232 259 59 77 32 14 322 357 279 246 165 184 226 224 266 211 95 229 34 292 4 270 136 138 183 217 233 227 243 244 250 264 273 276 272 274 271 255
50 131 144 340 335 53 71 72 252 60 58 39 332 68 339 120 88 122 180 184 197 240 133 254 190 184 231 224 169 193 197 241 175 211 174 215 260 221 37 150 131 142 349 100 19 191 176 231 259 257 254 195 119 121 128 101 190 245 213 180 155 200 205 234 261 53 241 121 228 180 217 261 107 118 177 207 282 327 276 242 258 266 266 269 281 283 280 275
119 112 66 303 1 64 96 200 182 155 124 52 61 69 312 122 164 144 231 184 207 169 225 174 215 266 62 73 166 220 169 250 190 230 226 139 245 76 272 170 186 181 207 183 215 156 214 188 217 304 315 221 161 154 181 66 230 232 238 184 208 78 72 99 99 160 276 206 213 200 258 266 24 113 108 148 212 261 270 253 209 255 266 268 275 275 274 273
119 44 288 322 5 25 236 105 137 140 187 150 161 162 168 179 231 277 182 191 176 223 170 215 344 135 115 68 112 47 198 259 305 153 8 219 271 90 39 190 6 221 128 3 347 114 233 209 184 261 285 305 312 310 321 260 196 200 217 147 206 167 140 156 234 196 235 230 192 218 250 257 259 236 190 200 208 242 255 263 268 253 259 271 275 275 277 280
166 149 324 11 15 55 74 339 57 135 134 172 136 167 148 182 153 176 203 151 177 102 324 77 102 165 99 173 195 221 215 165 225 306 272 251 245 98 2 337 239 232 2 58 34 252 227 354 241 231 235 248 255 344 100 75 199 239 194 188 189 207 215 213 358 203 234 206 199 230 233 276 286 275 286 287 289 290 292 295 294 292 283 265 261 267 271 275
102 124 147 180 13 55 63 33 112 134 168 191 180 160 191 198 78 188 191 235 178 189 144 220 161 175 192 183 227 227 212 195 196 357 230 219 287 19 90 189 267 253 179 139 320 110 93 258 222 234 244 247 264 286 96 116 276 274 268 242 180 176 177 189 193 238 126 341 266 250 231 255 262 276 283 281 287 286 288 297 298 296 296 295 290 286 285 280
199 105 86 339 293 177 143 130 117 93 66 126 58 117 178 155 176 182 130 277 63 240 219 187 186 247 176 189 153 210 162 215 158 235 93 241 297 193 192 157 203 188 200 166 59 220 224 248 314 150 254 255 270 274 285 282 257 263 257 252 228 183 178 196 225 235 204 234 249 272 145 228 264 278 285 285 285 293 299 295 292 291 290 285 281 280 280 277
35 99 100 328 118 74 15 46 121 120 99 47 106 187 179 197 214 189 154 127 221 211 204 249 219 211 202 179 184 231 168 266 248 198 211 170 210 138 219 144 194 151 194 169 180 177 169 252 149 165 285 280 257 250 253 250 268 269 259 255 249 218 205 211 234 235 227 238 251 267 276 274 271 278 281 280 289 298 294 291 285 280 273 274 276 275 275 275
190 165 148 10 74 103 232 134 122 142 125 294 206 214 187 193 208 157 282 180 195 216 153 241 235 147 195 187 204 208 211 215 188 257 182 153 193 203 250 221 125 166 196 188 176 197 195 262 111 207 295 287 322 47 225 253 262 276 270 237 233 230 230 223 231 250 244 256 258 258 269 277 275 267 270 281 290 283 283 274 269 270 270 270 273 274 274 272
45 358 143 135 97 83 155 13 147 147 131 184 211 203 177 205 223 185 205 205 214 168 180 214 172 127 188 200 217 238 237 212 201 234 164 176 251 171 189 214 139 146 178 173 193 127 209 260 83 145 296 279 96 341 357 282 261 258 274 273 231 214 218 230 215 227 207 231 243 289 278 262 265 270 261 260 268 269 267 273 280 279 268 272 274 272 270 272
94 125 329 103 97 281 211 85 44 97 240 199 190 182 199 215 174 145 229 187 194 271 199 191 165 161 177 191 224 225 237 195 248 276 216 248 346 197 256 160 177 159 171 189 58 174 196 205 197 177 240 263 82 36 323 316 295 285 264 243 243 204 204 209 229 227 214 215 237 234 241 238 273 315 293 283 260 263 271 269 274 281 287 274 272 276 278 279